Regional Weather Roundup
Issued by NWS Glasgow, MT

Home | Current Version | Previous Version | Text Only | Print | Product List | Glossary On
Versions: 1 2 3 4 5 6 7 8 9 10 11 12 13 14 15 16 17 18 19 20 21 22 23 24 25 26 27 28 29 30 31 32 33 34 35 36 37 38 39 40 41 42 43 44 45 46 47 48 49 50
000
ASUS45 KGGW 251615
RWRGGW
HOURLY REGIONAL WEATHER ROUNDUP FOR NORTHEAST MONTANA
NATIONAL WEATHER SERVICE GLASGOW MONTANA
1000 AM MDT SUN JUN 25 2017

NOTE: "FAIR" INDICATES FEW OR NO CLOUDS BELOW 12,000 FEET WITH NO
SIGNIFICANT WEATHER AND/OR OBSTRUCTIONS TO VISISBILITY.

NORTHEAST MONTANA


CITY           SKY/WX    TMP DP  RH WIND       PRES   REMARKS
GLASGOW        SUNNY     68  39  34 NW5       30.27F
PLENTYWOOD       N/A     63  43  48 NW2         N/A
WOLF POINT     SUNNY     68  41  37 E5        30.27F
JORDAN           N/A     71  33  24 MISG      30.28F
WINNETT          N/A     72  34  24 NE3         N/A
SIDNEY         PTSUNNY   62  38  40 CALM      30.27F
GLENDIVE       PTSUNNY   70  37  29 NE7       30.27S
MALTA            N/A     70  45  40 SW5         N/A

FORT PECK REPORTS


CITY           SKY/WX    TMP DP  RH WIND       PRES   REMARKS
FORT PECK        N/A     62  47  57 S3          N/A
THE PINES        N/A     65  37  35 CALM        N/A

SOUTHEAST MONTANA


CITY           SKY/WX    TMP DP  RH WIND       PRES   REMARKS
BILLINGS       SUNNY     65  42  43 S6        30.32F
MILES CITY     SUNNY     72  30  21 VRB5      30.28F
BAKER          SUNNY     72  30  21 W15G21    30.29S
LIVINGSTON     SUNNY     63  40  42 CALM      30.35F

CENTRAL MONTANA


CITY           SKY/WX    TMP DP  RH WIND       PRES   REMARKS
HAVRE          SUNNY     68  42  38 E3        30.30S
LEWISTOWN      SUNNY     65  40  39 CALM      30.33F
GREAT FALLS    SUNNY     66  42  41 SE6       30.30F
CUT BANK       SUNNY     63  44  50 SE10      30.29F
HELENA         SUNNY     64  42  44 CALM      30.31F
BUTTE          SUNNY     63  38  39 VRB3      30.36F
BOZEMAN        SUNNY     64  41  42 N6        30.34F

WESTERN MONTANA


CITY           SKY/WX    TMP DP  RH WIND       PRES   REMARKS
MISSOULA       SUNNY     65  45  48 VRB3      30.26F
KALISPELL      NOT AVBL

NORTH DAKOTA


CITY           SKY/WX    TMP DP  RH WIND       PRES   REMARKS
WILLISTON      SUNNY     62  48  60 S3        30.28S
DICKINSON      MOSUNNY   63  33  32 NE8       30.27S
MINOT          CLOUDY    61  46  57 NW9       30.23F
BISMARCK       CLOUDY    55  41  59 S6        30.28F

SOUTHERN SASKATCHEWAN


CITY           SKY/WX    TMP DP  RH WIND       PRES   REMARKS
REGINA         MOSUNNY   63  43  48 E6        30.28S
ESTEVAN        MOSUNNY   63  45  51 N5        30.27R
SWIFT CURRENT  SUNNY     61  50  67 NW9       30.28F




USA.gov is the U.S. government's official web portal to all federal, state and local government web resources and services.